Vorticity
3 2 2 2 2 2 2 1 2 3 3 3 3 3 3 3 3 3 3 3 4 4 3 5 7 8 6 5 5 5 5 4 3 2 2 3 4 5 6 7 7 7 6 6 5 3 1 1 1 2 3 4 4 4 4 3 3 3 3 3 2 2 2 3 3 3 3 3 3 3 4 4 4 4 4 4 4 4 4 4 4 4 5 5 5 5 4 4 3 3 3 3 3 3 2 2 2 2 3 3 4 4 4
3 3 2 2 2 2 2 2 1 1 3 3 4 3 3 3 3 3 3 3 3 3 1 4 6 8 7 6 5 5 5 4 4 3 3 3 3 4 5 7 7 8 8 7 6 5 3 2 1 2 3 4 4 4 4 4 4 4 3 3 3 2 2 3 3 3 3 3 3 3 3 3 3 3 3 4 4 4 4 3 3 4 4 5 5 5 5 4 4 3 3 3 3 3 2 2 2 2 3 3 4 4 5
4 4 3 3 2 2 2 2 2 1 2 4 5 4 3 3 3 3 3 3 2 2 0 3 6 7 7 7 6 5 4 4 4 4 4 3 3 3 4 5 7 8 8 8 8 6 4 3 2 2 3 3 4 4 4 4 4 4 4 4 3 3 3 3 3 3 3 3 2 2 2 2 2 2 2 3 3 4 4 3 3 3 4 4 5 5 5 5 4 4 3 3 3 3 2 2 2 2 2 3 4 4 5
5 5 4 3 3 2 2 2 2 2 2 3 4 4 4 3 3 3 3 3 2 2 1 2 4 6 7 8 7 5 4 4 4 4 4 4 4 3 3 4 5 7 8 9 9 8 6 4 3 2 3 3 4 4 4 4 5 5 5 4 4 4 3 4 4 4 3 3 2 2 2 2 2 2 1 2 2 3 4 3 3 2 2 3 4 5 5 5 4 4 4 3 3 3 2 2 2 2 2 3 4 4 5
6 5 5 4 3 3 2 2 2 2 2 2 2 3 4 4 3 3 3 2 2 2 1 2 3 5 6 7 7 6 5 3 3 3 4 5 5 4 4 4 4 6 8 9 9 8 7 4 3 3 4 4 4 4 4 4 4 5 5 4 4 4 4 3 3 3 3 2 2 1 1 2 2 2 1 1 2 2 3 3 3 2 2 3 4 4 5 5 5 4 4 4 3 3 2 2 2 2 2 3 4 4 5
6 6 6 5 4 3 3 3 2 2 2 2 1 2 4 5 4 3 2 2 2 1 1 0 2 3 4 6 7 7 6 4 3 3 4 5 5 5 5 4 4 5 6 8 9 9 7 5 4 3 4 5 5 4 4 4 4 4 4 4 4 4 3 3 3 3 2 2 1 1 1 2 2 2 2 2 2 2 2 3 3 2 2 2 3 4 5 5 5 5 4 4 3 2 2 1 1 2 2 3 4 4 5
6 6 6 6 5 4 4 3 3 2 3 2 2 2 3 4 4 4 3 2 1 1 1 0 0 1 2 5 6 8 8 7 6 4 4 4 5 6 6 5 4 4 5 8 9 9 7 5 4 4 5 6 5 4 3 3 3 3 4 4 4 4 3 3 3 3 3 2 1 1 1 2 2 2 3 3 3 3 3 3 3 3 3 3 3 4 5 6 6 5 5 4 3 2 2 1 1 2 2 3 4 4 5
6 6 6 6 6 5 4 3 3 3 3 2 2 2 2 2 3 3 2 3 2 2 1 1 0 -0 0 2 4 7 9 9 8 6 4 4 5 5 5 5 4 4 4 7 8 9 8 6 4 4 5 5 5 4 3 3 3 3 3 3 3 3 3 3 3 3 2 2 1 1 1 2 3 3 3 4 4 5 5 4 4 4 4 4 4 4 5 6 6 6 5 4 3 2 1 1 1 2 2 3 4 4 5
5 6 6 6 6 6 5 5 4 3 3 3 2 2 2 2 1 1 1 3 4 4 3 2 1 -0 -2 -1 1 4 7 7 7 6 5 5 5 5 6 5 5 4 4 5 7 8 7 6 5 4 4 4 3 2 1 1 2 2 2 3 3 3 2 2 2 1 1 1 1 1 2 2 3 3 4 4 5 5 6 6 6 5 5 4 5 5 6 6 6 6 5 4 3 2 1 1 1 2 2 3 4 4 5
4 5 6 6 6 6 6 5 5 4 3 3 3 2 2 2 1 1 0 1 3 5 5 3 2 1 -0 -1 -1 0 3 5 6 7 6 5 5 5 6 6 6 5 4 4 5 6 7 6 5 4 3 2 1 0 -0 1 1 2 2 2 2 2 1 0 -0 -0 0 0 1 1 2 2 3 3 4 4 5 5 6 7 8 7 6 5 5 6 6 7 6 6 5 4 3 2 1 1 1 2 3 3 4 5 5
5 4 4 5 6 6 6 6 6 5 4 4 3 3 3 2 2 2 2 1 1 3 5 4 3 3 2 0 -1 -1 0 3 5 7 7 5 4 4 5 6 6 5 4 3 4 4 5 5 4 3 1 0 -0 -0 -0 1 2 2 2 2 2 1 1 1 0 1 1 1 2 2 2 3 3 3 3 4 4 5 6 8 9 9 7 6 6 6 7 7 7 6 5 4 3 2 1 1 1 2 3 4 4 5 5
7 5 4 5 5 6 6 6 6 6 5 5 5 4 3 3 3 3 3 2 1 1 3 4 3 3 3 2 1 -0 -0 1 3 6 8 6 4 3 3 4 4 5 4 3 3 3 3 3 2 1 -0 -1 -1 -0 -0 1 2 3 2 2 1 1 2 2 2 3 3 3 4 4 3 3 3 3 3 4 5 6 7 8 9 9 8 7 7 7 7 7 7 6 5 3 2 2 1 1 1 2 3 4 5 5 5
8 7 6 5 4 5 6 6 6 6 6 7 7 7 5 4 4 3 3 3 2 1 0 2 3 3 4 3 3 2 1 1 3 5 7 6 5 3 2 2 3 3 3 3 2 2 1 1 0 -0 -1 -1 -1 -0 0 2 2 3 2 2 2 2 2 3 3 2 3 4 4 5 4 4 4 4 4 4 5 6 7 9 9 9 9 8 8 8 8 7 6 5 4 3 2 1 1 1 2 2 3 4 5 5 5
9 9 8 6 5 4 5 6 6 6 5 6 7 8 7 6 5 4 4 4 4 3 1 1 2 3 3 4 4 3 3 2 3 3 2 4 5 5 5 3 2 2 2 2 2 2 1 -0 -1 -1 -1 -1 -0 0 1 2 2 2 2 2 2 3 3 4 4 3 3 3 4 4 4 5 5 5 5 6 6 7 8 9 9 9 9 8 8 8 7 7 6 5 3 3 2 1 1 1 2 3 4 5 5 5 5
8 8 9 8 6 5 4 5 5 6 5 4 5 7 8 6 6 5 4 4 5 4 3 2 1 2 2 3 3 3 3 3 3 3 2 3 5 6 6 5 3 2 2 2 2 2 1 -0 -1 -1 -1 -0 0 1 1 2 2 2 2 3 3 4 4 4 4 4 4 4 4 4 4 5 6 6 6 7 7 8 8 9 9 9 9 8 8 7 7 6 5 4 3 2 2 1 1 2 2 3 4 5 5 5 4
7 7 7 9 8 7 4 4 5 5 5 4 4 4 6 6 6 6 6 5 5 5 5 3 2 2 2 2 2 2 2 3 4 4 4 4 5 6 6 5 4 3 2 2 2 2 2 1 1 1 1 1 1 2 2 3 3 3 3 3 4 5 5 5 5 5 5 5 5 5 5 5 6 6 7 8 8 8 9 9 9 9 8 8 7 7 6 5 4 3 3 2 2 1 1 2 3 4 5 5 5 5 4
6 6 5 8 9 9 6 4 4 4 5 5 4 3 4 5 6 7 8 7 6 6 5 5 5 4 4 3 3 3 2 3 4 5 5 6 5 6 6 6 5 5 4 3 3 3 3 3 3 3 3 2 3 3 3 3 3 3 4 5 5 5 5 5 5 5 5 5 5 5 5 6 6 6 7 8 8 9 9 8 8 8 7 7 6 6 5 4 4 3 2 2 2 2 2 3 3 4 5 5 5 4 4
5 4 3 5 8 10 9 6 4 4 5 5 5 4 4 4 5 6 8 8 7 7 6 6 7 7 7 6 6 5 4 4 4 4 4 5 5 5 6 7 7 6 5 4 4 4 4 4 5 5 4 4 4 4 4 4 4 4 5 6 6 6 6 5 5 5 6 6 6 6 6 6 6 7 7 8 8 8 8 8 7 6 6 5 5 5 4 4 3 3 2 2 2 2 3 3 4 5 5 5 5 4 4
6 3 1 3 5 8 10 9 6 4 4 4 4 5 5 4 4 4 5 6 7 7 7 6 7 8 9 9 10 9 8 6 4 3 4 4 5 5 6 7 8 7 6 6 5 5 5 5 5 5 5 5 5 5 5 5 5 5 6 7 7 6 6 6 6 6 6 6 6 6 6 6 7 7 7 8 8 8 7 7 6 5 5 4 4 3 3 3 3 2 2 2 3 3 4 4 5 5 5 5 5 4 3
9 5 2 2 4 6 9 10 9 6 4 3 3 4 5 6 5 4 3 4 5 6 6 6 7 7 9 10 11 11 11 8 6 3 3 3 4 5 6 7 7 7 7 6 6 5 5 5 5 5 6 6 6 6 6 6 6 6 7 7 7 7 6 6 6 6 6 6 6 6 6 7 7 7 7 8 8 7 7 6 5 5 4 3 3 3 3 3 2 2 3 3 3 4 4 5 5 5 5 5 4 4 3
12 8 4 3 3 4 6 10 11 10 6 4 3 4 5 6 6 6 5 5 5 6 7 8 7 7 8 9 10 11 11 8 6 4 3 3 3 4 5 6 7 7 6 6 6 5 5 4 4 5 5 6 6 7 7 7 7 7 8 8 7 7 6 6 7 7 7 7 7 7 7 6 7 7 7 7 7 7 7 6 5 5 4 4 3 3 3 3 3 3 3 4 4 5 5 5 5 5 5 4 4 3 3
12 11 7 4 3 2 3 7 10 12 11 7 4 4 5 6 6 6 6 6 7 7 9 9 8 8 8 8 9 9 9 8 6 5 4 4 4 4 5 6 6 6 6 6 6 5 5 4 4 5 6 6 7 7 7 8 8 8 8 8 7 7 7 7 7 7 7 7 7 6 7 7 7 7 7 7 7 7 7 6 6 5 5 5 4 4 4 4 4 4 4 5 5 6 6 6 6 5 5 4 3 3 2
7 12 13 8 4 1 0 3 7 10 13 10 6 4 5 5 5 5 5 7 8 9 9 9 8 8 7 7 7 8 8 8 7 6 5 5 5 5 6 6 6 6 6 5 5 5 5 5 5 6 6 7 7 8 8 8 9 9 9 8 8 7 7 7 7 7 7 7 6 6 7 7 7 7 7 7 7 7 6 6 6 6 6 6 5 5 5 5 5 6 6 6 6 6 6 6 5 5 4 3 3 3 3
2 9 16 12 7 2 -1 -1 3 8 13 12 9 5 3 4 4 4 5 6 8 9 8 7 7 6 6 7 7 7 7 7 7 7 7 6 5 5 5 6 6 6 6 5 5 5 6 6 6 7 7 8 8 8 9 9 9 9 9 8 8 7 7 6 6 6 6 6 6 7 7 7 7 7 7 7 6 6 6 6 6 6 6 6 6 6 6 6 6 6 6 6 6 6 6 5 5 4 3 3 3 3 3
2 6 10 13 11 6 2 -1 1 6 12 15 12 7 4 3 4 5 5 5 5 5 6 6 6 5 5 6 7 8 7 7 7 7 7 7 6 5 5 6 6 6 6 6 6 6 7 7 7 8 8 8 8 8 8 9 9 9 8 8 7 7 6 6 6 6 6 6 6 7 7 7 7 7 6 6 6 6 6 6 6 6 7 7 7 7 7 7 7 7 7 6 6 6 5 5 4 3 3 3 3 3 3
3 7 4 10 12 11 7 3 -0 0 5 14 14 11 6 4 4 5 6 6 5 5 5 6 6 5 5 5 7 8 8 7 7 7 8 7 7 6 6 6 7 7 6 6 6 7 7 8 8 8 8 8 8 8 8 8 8 8 8 7 7 6 6 6 6 6 6 6 6 7 7 7 7 6 6 6 6 6 6 6 6 6 7 7 7 7 6 6 6 6 6 6 5 5 4 4 3 3 3 3 3 4 4
3 11 8 8 12 15 13 8 3 -2 -3 7 13 15 11 5 4 4 7 8 8 7 7 7 6 5 5 5 6 7 8 7 7 7 7 8 8 7 7 7 7 7 7 7 7 7 8 8 8 8 8 8 8 8 8 8 8 8 7 6 6 6 6 6 6 6 6 6 6 6 7 7 6 6 6 6 6 6 6 6 6 6 6 6 6 6 6 6 6 6 5 5 5 4 4 4 3 3 3 4 4 4 4
-2 11 18 7 10 17 15 12 8 3 -4 1 8 15 17 10 5 3 5 8 9 9 8 8 7 6 4 4 5 6 8 7 7 6 7 7 8 8 8 8 8 8 7 7 7 7 8 8 8 8 8 8 7 7 7 8 8 7 6 6 6 5 5 5 5 5 6 6 6 6 6 6 6 6 6 6 6 6 6 6 6 6 6 6 6 5 5 5 5 5 5 4 4 4 4 4 4 4 4 4 4 4 4
-6 6 23 9 7 12 17 16 13 8 3 -1 3 12 19 17 9 2 2 5 7 8 8 8 7 6 5 4 4 5 7 7 7 6 6 7 7 8 8 8 8 7 7 7 7 7 7 7 7 7 7 7 7 7 7 7 7 7 6 6 5 5 5 5 5 5 5 5 6 6 6 6 6 6 6 6 6 6 6 6 6 6 5 5 5 5 5 4 4 4 4 4 4 4 4 4 4 4 4 4 4 4 5
-5 1 23 8 1 4 14 21 18 13 11 2 3 9 18 24 17 6 1 2 4 7 8 7 7 7 6 4 4 5 7 8 7 6 6 6 6 6 7 8 7 7 6 6 6 6 7 7 6 6 6 6 6 6 6 7 7 6 6 6 5 5 5 5 4 4 5 5 5 5 5 6 6 6 6 6 6 6 6 6 5 5 5 5 4 4 4 4 4 4 4 4 4 4 4 4 4 4 4 4 5 5 5
-2 -0 14 9 4 2 6 16 18 17 16 11 7 8 17 26 22 13 5 3 4 6 7 8 7 7 7 5 4 5 6 8 7 7 5 5 4 5 6 6 6 6 6 6 6 7 7 7 6 6 6 6 6 6 6 6 6 6 6 5 5 5 5 4 4 4 4 5 5 5 5 5 5 5 6 6 6 6 5 5 5 4 4 4 4 4 4 4 4 4 4 4 4 4 4 4 4 5 5 5 5 5 5
1 -1 4 6 5 3 3 4 8 12 13 17 12 11 24 29 24 15 10 7 5 5 7 8 8 7 6 6 5 5 6 7 7 7 6 4 4 3 4 5 5 5 5 5 6 7 7 7 6 6 6 5 5 5 5 6 6 6 5 5 5 5 5 4 4 4 4 4 4 5 5 5 5 5 5 5 5 5 5 5 4 4 4 4 4 4 4 4 4 4 4 4 4 4 4 5 5 5 5 5 5 5 5
4 -1 -4 1 1 1 -0 -3 0 7 18 21 18 16 24 33 29 20 15 9 6 5 5 7 7 7 6 5 5 5 6 7 7 7 6 4 3 3 3 4 4 5 5 5 6 7 7 7 7 6 6 6 5 5 5 5 5 5 5 5 5 4 4 4 4 4 4 4 4 4 4 4 4 5 5 5 5 5 5 4 4 4 4 4 4 4 4 4 4 4 4 4 5 5 5 5 5 5 6 6 6 6 5
6 1 -6 -6 -4 -2 -2 -2 3 14 31 24 22 22 19 31 31 27 24 11 6 4 2 5 6 6 5 4 4 4 5 6 7 7 6 5 4 3 3 3 4 4 4 5 5 6 6 6 6 6 6 6 5 5 5 5 5 5 5 5 4 4 4 4 4 4 4 4 4 4 4 4 4 4 4 4 5 5 4 4 4 4 3 4 4 4 4 4 4 4 5 5 5 5 5 5 5 6 6 6 6 6 5
9 4 -2 -8 -8 -5 -2 0 9 18 23 13 16 20 11 22 27 29 32 15 8 6 1 2 5 6 6 4 3 4 4 6 6 6 6 5 5 4 3 3 3 3 3 4 5 5 6 6 6 6 6 6 5 5 5 5 5 5 5 4 4 4 4 4 4 4 4 4 4 4 4 4 4 4 4 4 4 4 4 4 4 4 3 4 4 4 4 4 4 5 5 5 5 5 5 6 6 6 6 6 6 6 5
10 6 2 -4 -8 -8 -5 0 10 16 7 -3 6 16 10 14 19 24 26 16 13 12 8 6 7 8 6 5 4 4 4 5 6 6 6 6 5 5 4 4 3 3 3 3 4 5 5 5 5 5 5 5 5 5 5 5 5 5 4 4 4 4 4 4 4 4 4 4 4 4 4 4 4 4 4 4 4 4 4 4 4 4 4 4 4 4 4 4 5 5 5 5 6 6 6 6 6 6 6 6 6 5 5
10 6 3 0 -4 -7 -8 -4 6 10 -0 -10 -3 8 11 13 17 18 16 13 15 18 17 13 10 8 7 6 5 4 4 4 5 5 6 6 6 5 4 4 3 3 2 3 3 4 4 4 4 4 4 4 4 5 5 5 5 5 4 4 4 4 4 4 4 4 4 3 3 3 3 3 3 3 3 3 4 4 4 4 4 4 4 4 4 4 4 5 5 5 5 5 6 6 6 6 6 6 6 6 6 5 5
8 7 4 2 -0 -3 -7 -7 -2 2 -3 -9 -5 2 7 17 25 27 20 10 12 16 18 14 10 8 7 6 6 5 4 4 4 5 5 6 6 5 5 4 3 2 2 2 3 3 3 3 3 3 4 4 4 4 4 4 4 4 4 4 4 4 4 4 4 3 3 3 3 3 3 3 3 3 3 4 4 4 4 4 4 4 4 4 4 4 5 5 5 5 5 6 6 6 6 6 6 6 6 6 5 5 5
4 6 5 3 1 -0 -2 -6 -7 -8 -9 -9 -5 1 5 15 28 37 34 15 7 6 10 10 9 8 7 7 6 6 5 4 4 4 5 6 6 5 5 4 3 3 2 2 2 2 2 3 3 3 3 3 3 4 4 4 4 4 4 4 4 4 4 4 3 3 3 3 3 3 3 3 3 4 4 4 4 4 4 4 4 4 4 4 5 5 5 5 5 5 6 6 6 6 6 6 6 6 6 5 5 5 4
0 4 4 1 0 1 3 -3 -9 -13 -15 -19 -15 -7 -3 4 17 31 40 26 12 2 -0 3 4 5 6 6 6 7 6 5 5 5 5 5 5 5 5 4 3 3 2 2 2 1 2 2 2 2 3 3 3 3 4 4 4 4 4 4 4 4 4 4 3 3 3 3 3 3 3 4 4 4 4 4 4 4 5 5 5 5 5 5 5 5 5 5 6 6 6 6 6 6 6 6 6 6 5 5 5 5 4
-2 0 1 -0 -1 1 6 1 -7 -14 -15 -28 -31 -24 -10 -2 8 20 34 33 24 11 -1 -3 -1 2 4 4 5 6 7 6 6 5 6 5 5 5 5 4 3 3 3 2 1 1 1 2 2 2 2 2 3 3 3 3 3 3 4 4 4 4 4 3 3 3 3 3 3 3 3 4 4 4 4 4 4 5 5 5 5 5 5 5 5 5 6 6 6 6 6 7 7 7 6 6 6 5 5 5 5 5 4
-1 -2 -2 -1 -1 1 6 6 -2 -11 -11 -24 -37 -38 -18 4 18 27 30 31 28 21 10 0 -3 -3 0 2 3 5 6 6 6 6 6 6 6 5 4 4 3 3 3 2 1 1 1 1 2 2 2 2 2 2 2 3 3 3 3 3 3 3 3 3 3 3 3 3 3 3 4 4 4 4 4 4 4 4 4 4 5 5 5 5 5 5 6 6 6 7 7 7 7 7 6 6 5 5 5 5 5 5 4
1 -2 -4 -2 1 4 4 9 4 -3 -8 -15 -30 -39 -28 -1 23 37 38 31 26 24 23 10 2 -3 -3 -1 1 2 4 5 5 5 6 6 6 5 4 3 3 2 2 2 1 1 1 1 2 2 2 2 2 2 2 2 2 3 3 3 3 3 3 3 3 3 3 3 3 3 3 4 4 4 4 4 4 4 4 4 4 4 5 5 5 5 6 6 6 7 7 7 7 7 6 6 5 5 5 5 5 4 4
3 -1 -4 -2 2 6 5 9 11 8 -3 -8 -18 -28 -33 -12 13 34 45 33 25 21 24 20 12 4 -1 -1 -1 0 1 2 3 4 5 6 6 6 5 3 2 2 1 1 1 1 1 2 2 2 2 2 2 2 2 2 2 2 2 2 2 3 3 3 3 3 3 3 3 3 3 3 3 4 4 4 4 4 4 4 4 4 4 4 5 5 6 6 6 7 7 7 7 6 6 5 5 5 5 5 5 4 3
6 3 -0 -1 2 5 6 9 16 18 7 -1 -8 -17 -30 -20 1 24 43 37 27 18 17 20 20 15 8 3 0 -0 -0 -0 1 2 3 4 6 6 6 4 3 2 1 0 0 1 1 2 2 3 3 3 3 2 2 2 1 1 1 2 2 2 3 3 3 3 3 3 3 3 3 3 3 3 3 3 3 3 3 3 3 4 4 4 5 5 5 6 6 6 7 7 6 6 5 5 5 5 5 5 4 4 2
6 5 4 3 2 3 4 7 16 23 19 5 -3 -11 -25 -25 -9 13 36 39 30 19 11 15 19 20 16 9 5 3 1 -0 -1 -0 1 3 4 6 6 5 4 2 1 0 -0 0 1 1 2 2 3 3 3 3 2 2 2 1 1 2 2 2 2 3 3 2 2 2 2 2 3 3 3 3 3 3 3 3 3 3 3 3 3 4 4 5 5 6 6 6 6 6 6 5 5 5 6 6 5 5 4 3 1
5 5 6 6 4 3 2 5 14 22 24 11 1 -7 -19 -25 -16 3 27 37 32 21 9 9 12 15 15 11 9 7 5 2 0 -1 -0 1 3 4 6 6 4 3 1 0 -0 -0 0 1 1 2 2 3 3 3 3 3 2 2 2 2 2 2 2 2 2 2 2 2 2 2 2 2 2 2 2 2 2 2 2 2 2 3 3 4 4 5 5 5 6 6 6 5 5 5 5 6 6 6 5 4 3 2 1
3 4 5 6 5 4 3 6 12 19 23 16 8 -0 -10 -20 -20 -8 17 33 33 23 9 5 5 7 8 8 8 8 8 5 3 1 0 1 2 3 4 5 5 3 2 1 0 -0 -0 -0 0 1 1 2 2 3 3 3 3 3 2 2 2 2 2 2 2 2 2 2 2 2 2 2 2 2 2 2 2 2 2 2 2 3 3 4 4 5 5 5 6 6 5 5 5 5 5 6 6 5 5 4 3 1 -0
4 4 4 4 4 4 3 8 13 17 20 16 12 7 1 -11 -19 -17 1 26 33 27 13 5 2 1 3 4 5 7 7 7 5 3 2 2 2 3 3 3 4 3 2 1 1 0 -0 -0 -0 0 0 1 2 2 3 3 3 3 3 3 3 3 3 3 2 2 2 2 2 2 2 2 2 2 2 2 2 2 2 2 2 3 3 4 4 5 5 5 6 5 5 5 5 5 6 6 6 5 4 3 2 0 -1
4 5 6 4 4 5 5 7 10 14 17 15 15 15 13 0 -12 -18 -14 11 29 34 22 10 4 1 -0 1 3 4 4 5 5 4 3 3 3 3 4 4 3 3 3 2 1 1 1 1 1 1 0 1 1 2 3 3 4 4 4 4 3 3 3 3 3 2 2 2 2 2 2 2 2 2 2 2 2 2 2 2 3 3 3 4 5 5 6 6 6 5 5 5 5 5 6 6 5 5 4 2 1 -1 -2
4 5 7 6 5 5 7 8 9 10 12 13 17 20 21 13 5 -3 -15 -5 14 31 34 19 10 4 2 1 1 1 1 2 2 2 3 3 3 3 4 4 4 4 4 3 2 2 2 2 2 2 2 2 2 2 3 4 4 5 5 4 4 4 4 3 3 2 2 2 2 2 2 2 2 2 2 2 2 2 2 2 3 3 4 4 5 5 6 6 5 5 5 5 5 6 6 5 5 4 3 1 -0 -2 -3
3 4 6 6 5 4 4 7 9 10 10 13 18 21 18 19 15 6 -9 -14 -6 11 32 30 20 11 7 5 3 2 1 -0 -0 -0 1 2 3 4 5 5 5 6 5 5 4 4 3 3 4 4 4 4 4 4 4 5 5 6 5 5 5 5 4 4 3 2 2 2 2 2 2 2 2 2 2 2 2 2 2 2 3 3 4 5 5 5 6 5 5 5 5 5 6 6 6 5 4 3 2 0 -1 -2 -2
4 4 5 7 6 4 3 7 9 11 11 14 18 19 11 11 8 5 2 -9 -13 -7 11 28 30 23 12 9 7 5 3 1 -1 -1 -1 0 2 3 4 4 4 4 4 4 5 5 4 4 5 5 5 5 5 5 5 6 6 7 6 6 6 5 5 4 3 3 3 3 2 2 2 2 2 2 2 2 2 2 2 3 3 3 4 5 5 5 5 5 4 4 4 5 6 6 6 5 4 3 1 -0 -1 -2 -2
4 3 4 7 7 6 5 7 9 10 9 13 15 14 7 5 2 3 9 6 0 -2 5 19 30 33 21 13 9 7 6 4 1 -0 -0 -0 0 1 3 2 2 2 3 3 4 5 4 4 5 6 6 6 6 6 6 6 7 7 7 7 6 6 5 5 4 4 4 3 3 2 2 3 3 3 3 3 2 2 2 3 3 3 4 4 4 4 4 4 3 3 4 5 5 6 6 5 4 3 1 0 -1 -1 -1
4 3 3 6 7 7 6 5 6 7 7 11 12 12 10 9 7 8 14 15 12 8 9 15 26 33 29 17 11 8 8 7 5 2 1 1 1 1 2 3 3 3 4 3 3 4 5 4 4 5 6 5 5 5 6 6 6 7 7 7 6 6 5 5 5 5 5 4 3 3 3 2 2 3 3 3 2 2 3 3 3 3 3 3 3 3 3 3 2 2 3 3 4 5 5 4 3 3 2 0 -1 -1 -0
4 3 3 5 6 7 7 5 5 7 8 14 16 15 13 10 11 15 19 18 15 13 11 15 23 30 29 20 13 9 9 9 8 6 2 2 1 1 2 3 3 3 3 3 3 3 4 3 4 5 6 3 3 3 4 5 5 6 6 7 6 6 6 5 5 5 5 4 3 3 3 2 2 2 2 2 2 2 3 3 3 3 3 3 3 2 2 1 1 1 2 3 3 4 4 3 3 2 2 0 -1 -1 -1
4 3 3 4 5 7 10 9 8 8 9 19 23 22 19 18 19 21 22 18 15 13 13 16 23 28 27 21 15 11 11 11 10 9 6 3 1 1 1 1 0 -0 0 2 3 3 3 2 2 3 4 2 1 1 2 3 4 5 5 6 6 6 6 6 5 5 4 4 3 3 2 2 2 2 2 2 2 2 2 3 3 3 3 3 2 2 1 0 0 0 1 2 3 3 3 3 2 2 1 -1 -2 -2 -1
4 3 2 3 5 7 11 10 10 10 11 19 23 26 28 30 27 23 20 18 15 12 9 11 17 23 25 23 20 18 17 16 13 11 10 6 3 1 -0 -1 -1 -2 -3 -3 -2 -1 1 0 0 1 2 2 2 0 -0 1 2 3 4 5 6 6 6 6 5 5 4 4 3 2 2 2 2 1 1 1 2 2 2 2 3 3 3 3 2 2 1 0 0 1 1 2 3 3 3 2 2 1 0 -1 -2 -3 -2
5 4 3 3 5 7 11 10 11 11 10 14 18 23 26 28 28 25 19 16 11 6 1 0 3 7 14 20 23 24 24 24 21 17 12 9 7 4 2 1 0 -0 -1 -2 -3 -4 -3 -3 -2 -1 0 1 1 -0 -1 -1 -1 -0 1 3 4 5 5 5 5 4 3 3 2 2 2 2 2 2 2 2 2 2 2 2 2 2 2 2 2 2 1 1 1 1 2 3 3 3 2 2 1 0 -1 -2 -3 -3 -1
7 5 3 3 5 7 10 10 10 8 6 3 2 5 12 16 15 12 10 8 4 -1 -7 -9 -9 -7 1 13 20 24 25 27 29 27 22 13 9 7 9 6 6 6 7 5 3 1 0 -1 -1 -1 -0 0 -1 -2 -2 -2 -2 -2 -1 -0 1 2 3 4 4 3 3 2 2 1 1 2 2 2 3 2 2 2 2 1 1 1 1 1 1 1 1 1 1 2 3 4 4 3 2 2 1 -0 -2 -3 -3 -1 3
10 7 4 3 4 6 8 8 8 8 7 2 -5 -10 -13 -11 -10 -8 -5 -3 -2 -3 -8 -11 -12 -8 3 13 16 16 16 21 27 33 36 25 15 10 13 9 8 9 13 11 9 7 6 4 3 2 2 2 1 0 -2 -3 -2 -2 -0 -1 -1 -1 -0 1 2 2 2 2 2 2 2 2 2 3 3 2 2 2 2 1 1 0 -0 0 1 1 1 1 2 3 4 4 4 3 2 1 0 -1 -3 -2 -0 4 10
Height
5841 5842 5844 5846 5847 5848 5850 5851 5852 5853 5854 5855 5856 5857 5859 5860 5861 5862 5863 5864 5865 5865 5865 5867 5869 5869 5867 5868 5868 5869 5870 5870 5871 5872 5873 5874 5875 5876 5877 5879 5880 5881 5882 5884 5884 5886 5887 5887 5888 5889 5889 5889 5890 5891 5891 5891 5891 5892 5892 5893 5893 5894 5894 5895 5895 5896 5897 5897 5898 5898 5898 5898 5898 5898 5899 5899 5899 5899 5899 5899 5899 5900 5900 5900 5901 5901 5901 5901 5901 5902 5902 5902 5902 5902 5902 5902 5902 5902 5902 5901 5901 5901 5901
5839 5840 5842 5844 5845 5846 5848 5849 5850 5851 5853 5854 5855 5856 5857 5858 5859 5861 5862 5862 5864 5865 5865 5864 5866 5867 5865 5866 5867 5868 5869 5869 5870 5871 5872 5873 5874 5875 5876 5877 5879 5880 5881 5882 5884 5884 5885 5886 5887 5888 5888 5889 5889 5889 5890 5890 5891 5891 5891 5892 5892 5893 5894 5894 5895 5895 5896 5896 5897 5897 5897 5897 5898 5898 5898 5898 5898 5898 5898 5899 5899 5899 5899 5899 5900 5900 5900 5900 5901 5901 5901 5901 5902 5902 5901 5901 5901 5901 5901 5901 5901 5901 5901
5836 5838 5839 5841 5843 5844 5845 5847 5848 5849 5851 5852 5854 5854 5856 5857 5858 5859 5860 5861 5862 5863 5863 5864 5865 5865 5864 5865 5866 5866 5867 5868 5869 5870 5871 5872 5873 5874 5875 5876 5878 5879 5880 5881 5882 5883 5884 5885 5886 5886 5887 5888 5888 5889 5889 5889 5890 5890 5890 5891 5892 5892 5893 5894 5894 5894 5895 5895 5896 5896 5896 5896 5897 5897 5897 5897 5897 5897 5897 5898 5898 5899 5898 5899 5899 5899 5900 5900 5900 5900 5900 5901 5901 5901 5901 5901 5901 5900 5900 5900 5900 5900 5900
5834 5835 5837 5839 5840 5841 5843 5844 5846 5848 5849 5850 5852 5853 5854 5855 5857 5858 5859 5859 5860 5860 5861 5863 5864 5864 5864 5864 5864 5865 5866 5867 5868 5869 5870 5871 5871 5873 5874 5875 5876 5878 5879 5880 5881 5882 5883 5884 5885 5885 5886 5887 5887 5888 5888 5889 5889 5889 5889 5890 5891 5891 5892 5893 5893 5894 5894 5894 5895 5895 5895 5895 5896 5896 5897 5897 5897 5897 5896 5897 5897 5898 5898 5898 5898 5899 5899 5899 5899 5899 5900 5900 5900 5900 5900 5900 5900 5900 5900 5900 5899 5899 5899
5830 5832 5834 5836 5837 5839 5840 5842 5844 5845 5847 5848 5850 5851 5853 5854 5855 5856 5857 5858 5858 5859 5859 5861 5862 5862 5862 5862 5863 5864 5864 5866 5867 5868 5869 5869 5870 5871 5872 5874 5875 5876 5878 5879 5880 5881 5882 5883 5884 5884 5885 5885 5886 5886 5887 5888 5888 5889 5889 5889 5889 5890 5891 5892 5893 5893 5893 5894 5894 5894 5894 5894 5895 5895 5896 5896 5896 5896 5896 5896 5896 5897 5897 5897 5897 5898 5898 5899 5899 5899 5899 5899 5899 5899 5899 5899 5899 5899 5899 5899 5899 5899 5899
5828 5829 5831 5833 5834 5836 5838 5839 5841 5843 5844 5846 5848 5849 5851 5852 5853 5854 5855 5856 5856 5857 5858 5859 5860 5860 5859 5861 5862 5863 5863 5864 5865 5866 5867 5868 5869 5870 5871 5872 5874 5875 5877 5878 5879 5880 5881 5882 5883 5883 5883 5884 5884 5885 5886 5886 5887 5887 5888 5888 5889 5889 5890 5891 5891 5892 5892 5892 5893 5893 5893 5893 5894 5894 5895 5895 5896 5896 5895 5895 5895 5896 5896 5896 5896 5896 5897 5897 5898 5898 5898 5898 5898 5898 5899 5899 5899 5899 5899 5898 5898 5898 5898
5825 5826 5828 5830 5831 5834 5836 5838 5839 5840 5842 5844 5845 5847 5849 5850 5851 5852 5853 5854 5855 5855 5856 5856 5858 5859 5859 5859 5860 5861 5862 5863 5864 5865 5866 5867 5867 5868 5869 5871 5872 5874 5875 5876 5878 5879 5880 5881 5881 5882 5882 5883 5883 5884 5884 5885 5886 5886 5887 5887 5888 5888 5889 5890 5890 5891 5891 5891 5892 5892 5892 5892 5893 5893 5894 5894 5894 5895 5894 5894 5894 5895 5895 5895 5895 5895 5896 5896 5897 5897 5897 5897 5897 5898 5898 5898 5898 5898 5898 5898 5898 5897 5897
5822 5824 5825 5827 5829 5830 5832 5834 5836 5838 5840 5841 5843 5844 5846 5848 5849 5850 5851 5851 5853 5854 5854 5855 5856 5857 5859 5858 5859 5859 5860 5861 5862 5864 5864 5865 5866 5867 5868 5869 5871 5872 5874 5875 5876 5878 5879 5880 5880 5881 5881 5881 5882 5883 5883 5884 5884 5885 5886 5886 5886 5887 5888 5889 5890 5890 5890 5890 5890 5891 5891 5892 5892 5892 5893 5893 5894 5894 5894 5894 5894 5894 5894 5894 5894 5894 5895 5895 5896 5896 5896 5896 5896 5896 5897 5897 5897 5897 5897 5897 5897 5897 5897
5819 5821 5822 5824 5826 5828 5829 5831 5833 5835 5837 5839 5840 5842 5844 5845 5847 5848 5850 5851 5851 5851 5853 5853 5854 5854 5856 5856 5857 5858 5860 5860 5861 5862 5863 5864 5864 5865 5866 5868 5869 5870 5872 5874 5875 5876 5878 5879 5879 5880 5880 5880 5881 5881 5882 5883 5883 5884 5884 5885 5885 5886 5886 5888 5889 5889 5889 5889 5889 5889 5890 5890 5891 5891 5891 5892 5892 5892 5893 5893 5893 5893 5893 5893 5893 5894 5894 5894 5895 5895 5895 5895 5895 5895 5895 5896 5896 5896 5896 5896 5896 5896 5896
5816 5818 5819 5821 5823 5825 5827 5829 5830 5832 5834 5836 5838 5839 5841 5843 5844 5846 5847 5849 5850 5851 5850 5851 5852 5853 5853 5854 5856 5857 5858 5859 5859 5861 5862 5863 5863 5864 5865 5866 5867 5869 5870 5872 5874 5875 5877 5878 5879 5879 5879 5879 5879 5880 5881 5881 5882 5882 5883 5884 5884 5885 5885 5887 5888 5887 5888 5888 5888 5888 5889 5889 5889 5890 5890 5890 5891 5891 5891 5892 5892 5892 5892 5892 5892 5893 5893 5893 5894 5894 5894 5894 5894 5894 5894 5895 5895 5895 5895 5895 5895 5895 5895
5814 5815 5817 5818 5820 5822 5824 5826 5828 5829 5832 5834 5835 5837 5839 5840 5842 5843 5844 5847 5848 5849 5848 5849 5850 5851 5852 5853 5854 5855 5856 5857 5858 5859 5860 5861 5861 5862 5863 5864 5865 5867 5869 5870 5872 5874 5876 5877 5878 5878 5878 5878 5878 5879 5879 5879 5880 5880 5881 5882 5883 5884 5885 5885 5886 5886 5887 5887 5887 5887 5888 5888 5888 5889 5889 5889 5889 5890 5890 5890 5891 5891 5891 5891 5891 5891 5892 5892 5893 5893 5893 5893 5893 5893 5894 5894 5894 5894 5894 5894 5894 5894 5894
5812 5812 5814 5816 5817 5819 5821 5823 5825 5827 5829 5831 5832 5834 5836 5837 5839 5840 5842 5843 5845 5846 5845 5847 5848 5849 5849 5851 5852 5853 5854 5855 5856 5857 5858 5859 5860 5861 5862 5863 5864 5866 5867 5869 5871 5873 5874 5875 5876 5877 5877 5877 5877 5877 5878 5878 5878 5879 5880 5881 5882 5883 5884 5884 5885 5885 5885 5885 5885 5886 5887 5887 5887 5887 5888 5888 5888 5889 5889 5889 5889 5889 5889 5889 5890 5890 5891 5891 5891 5892 5892 5892 5892 5892 5893 5893 5893 5894 5894 5894 5894 5894 5894
5810 5812 5812 5813 5815 5817 5818 5820 5822 5824 5827 5829 5830 5831 5833 5835 5836 5838 5839 5840 5842 5843 5843 5844 5846 5847 5848 5849 5850 5851 5852 5854 5854 5855 5856 5857 5858 5859 5860 5861 5863 5864 5865 5867 5869 5871 5873 5874 5875 5875 5875 5876 5876 5876 5876 5877 5877 5877 5878 5879 5881 5881 5882 5883 5883 5884 5884 5885 5885 5884 5885 5885 5886 5886 5887 5887 5887 5887 5888 5888 5888 5888 5889 5889 5889 5889 5890 5890 5890 5890 5891 5891 5891 5892 5892 5892 5892 5893 5893 5893 5893 5893 5893
5808 5809 5811 5811 5812 5814 5816 5817 5819 5822 5826 5827 5828 5829 5830 5832 5834 5835 5837 5838 5839 5840 5842 5842 5843 5844 5846 5847 5848 5849 5850 5852 5853 5854 5854 5855 5856 5857 5858 5859 5861 5862 5863 5865 5867 5869 5871 5873 5874 5874 5874 5874 5874 5874 5874 5875 5875 5876 5877 5878 5879 5880 5881 5881 5882 5882 5882 5883 5883 5884 5884 5884 5884 5885 5885 5886 5886 5886 5887 5887 5887 5887 5887 5888 5888 5888 5889 5889 5889 5889 5889 5890 5890 5891 5891 5891 5891 5892 5892 5892 5892 5892 5892
5805 5806 5809 5810 5811 5812 5813 5815 5816 5818 5821 5823 5825 5828 5827 5829 5831 5832 5834 5835 5837 5838 5839 5840 5841 5843 5844 5845 5846 5847 5848 5850 5852 5853 5852 5853 5854 5856 5857 5858 5859 5860 5861 5863 5865 5867 5869 5871 5872 5872 5873 5873 5873 5873 5873 5873 5874 5874 5876 5877 5878 5879 5879 5880 5880 5880 5881 5882 5882 5882 5883 5883 5883 5884 5884 5884 5885 5885 5885 5886 5886 5886 5886 5886 5887 5887 5888 5888 5888 5889 5889 5889 5889 5890 5890 5890 5890 5891 5891 5891 5891 5891 5891
5802 5802 5805 5809 5810 5810 5811 5812 5814 5815 5817 5819 5822 5825 5825 5827 5829 5830 5831 5833 5834 5835 5837 5838 5839 5840 5842 5843 5844 5845 5846 5849 5850 5850 5850 5852 5853 5854 5855 5856 5857 5858 5859 5861 5863 5865 5868 5869 5870 5870 5871 5871 5871 5871 5871 5871 5872 5873 5874 5875 5876 5877 5878 5878 5879 5879 5879 5880 5881 5881 5882 5882 5882 5882 5883 5883 5884 5884 5884 5884 5885 5885 5885 5885 5886 5886 5887 5887 5887 5888 5888 5888 5889 5889 5889 5889 5889 5889 5890 5890 5890 5890 5890
5801 5802 5804 5807 5809 5809 5809 5810 5811 5813 5814 5816 5819 5821 5823 5825 5827 5828 5828 5829 5831 5833 5834 5836 5837 5838 5839 5840 5841 5842 5844 5847 5848 5847 5848 5850 5851 5852 5853 5854 5855 5856 5858 5859 5861 5864 5865 5867 5868 5869 5869 5869 5869 5869 5869 5870 5871 5872 5873 5874 5875 5875 5876 5876 5877 5878 5878 5879 5879 5880 5881 5881 5881 5881 5881 5882 5882 5883 5883 5883 5884 5884 5884 5884 5885 5885 5886 5886 5886 5886 5887 5887 5888 5888 5888 5888 5889 5889 5889 5889 5889 5890 5890
5799 5801 5802 5805 5807 5807 5807 5807 5809 5811 5812 5814 5816 5818 5820 5823 5825 5826 5826 5827 5829 5831 5833 5834 5835 5836 5837 5839 5839 5839 5841 5843 5844 5844 5847 5848 5849 5850 5851 5852 5853 5854 5856 5857 5859 5861 5864 5865 5866 5867 5867 5868 5867 5867 5867 5868 5869 5870 5871 5872 5873 5874 5874 5875 5875 5876 5877 5877 5878 5879 5879 5880 5880 5880 5880 5880 5881 5881 5882 5882 5883 5883 5883 5884 5884 5884 5885 5885 5885 5885 5886 5886 5887 5887 5887 5887 5888 5888 5888 5888 5889 5889 5889
5797 5799 5800 5802 5804 5805 5806 5806 5807 5808 5810 5812 5814 5816 5818 5819 5821 5823 5824 5825 5826 5829 5830 5831 5833 5834 5834 5837 5837 5837 5839 5840 5841 5843 5845 5846 5847 5849 5849 5850 5851 5853 5854 5855 5858 5859 5861 5863 5864 5865 5865 5865 5865 5865 5865 5866 5867 5869 5870 5870 5871 5872 5872 5873 5874 5874 5875 5875 5876 5877 5877 5878 5878 5879 5879 5879 5880 5880 5881 5881 5881 5882 5882 5883 5883 5883 5884 5884 5884 5884 5885 5885 5885 5886 5886 5886 5887 5887 5887 5887 5888 5888 5888
5795 5797 5799 5799 5800 5801 5804 5805 5805 5804 5807 5809 5811 5814 5817 5817 5818 5820 5821 5822 5824 5826 5829 5830 5831 5832 5832 5834 5834 5834 5836 5838 5839 5841 5842 5844 5845 5846 5847 5848 5849 5850 5852 5854 5856 5858 5859 5860 5862 5863 5863 5864 5864 5864 5864 5865 5866 5867 5868 5869 5869 5870 5871 5871 5872 5873 5873 5874 5874 5875 5875 5876 5876 5876 5877 5878 5879 5879 5880 5880 5880 5881 5881 5882 5882 5882 5883 5883 5883 5884 5884 5884 5884 5885 5885 5885 5886 5886 5886 5887 5887 5888 5887
5792 5794 5795 5796 5797 5798 5800 5803 5803 5802 5804 5806 5808 5811 5815 5815 5815 5816 5818 5820 5821 5824 5828 5829 5829 5830 5831 5832 5833 5834 5834 5836 5837 5839 5840 5841 5843 5844 5845 5846 5847 5849 5850 5852 5854 5855 5857 5859 5859 5860 5861 5861 5862 5862 5862 5863 5864 5865 5866 5867 5868 5869 5869 5869 5870 5871 5872 5872 5873 5874 5874 5874 5875 5875 5876 5876 5877 5878 5879 5879 5879 5880 5880 5880 5881 5881 5882 5882 5882 5883 5883 5883 5884 5884 5884 5884 5884 5885 5885 5886 5886 5886 5887
5789 5791 5792 5792 5793 5794 5796 5799 5800 5801 5801 5803 5805 5809 5811 5813 5813 5813 5815 5818 5819 5822 5825 5826 5827 5828 5827 5830 5832 5832 5832 5834 5835 5836 5838 5839 5840 5842 5843 5844 5845 5847 5848 5850 5852 5854 5855 5856 5857 5858 5859 5859 5860 5860 5861 5861 5862 5864 5864 5865 5866 5867 5867 5868 5869 5869 5870 5871 5871 5872 5873 5873 5873 5874 5874 5875 5876 5877 5877 5878 5878 5879 5879 5879 5880 5880 5880 5881 5881 5882 5882 5882 5883 5883 5883 5884 5884 5884 5884 5885 5885 5885 5886
5786 5788 5789 5789 5789 5790 5792 5795 5798 5799 5799 5800 5803 5806 5809 5809 5809 5811 5813 5815 5817 5819 5821 5824 5824 5824 5825 5828 5829 5829 5831 5832 5833 5834 5835 5837 5838 5840 5841 5842 5844 5845 5846 5848 5850 5852 5853 5854 5855 5856 5857 5857 5858 5858 5859 5860 5861 5862 5863 5864 5864 5865 5865 5866 5867 5868 5869 5869 5870 5871 5871 5871 5872 5873 5873 5874 5874 5875 5876 5876 5877 5878 5878 5878 5879 5879 5879 5880 5880 5880 5881 5881 5882 5882 5882 5882 5883 5883 5883 5884 5884 5884 5884
5784 5785 5786 5786 5787 5788 5789 5791 5794 5797 5797 5798 5800 5802 5804 5804 5806 5809 5811 5813 5814 5816 5819 5820 5820 5821 5824 5825 5827 5828 5829 5830 5831 5832 5833 5834 5836 5838 5839 5840 5842 5843 5845 5846 5848 5850 5851 5852 5853 5854 5855 5855 5856 5856 5857 5858 5859 5860 5861 5862 5863 5863 5864 5865 5865 5866 5867 5868 5869 5869 5870 5870 5871 5871 5872 5872 5873 5874 5874 5875 5876 5876 5877 5877 5877 5878 5878 5879 5879 5879 5880 5880 5880 5881 5881 5881 5882 5882 5882 5883 5883 5883 5884
5781 5783 5783 5784 5785 5786 5789 5788 5789 5793 5795 5796 5797 5799 5801 5802 5804 5806 5808 5810 5812 5815 5816 5817 5818 5820 5822 5824 5825 5826 5827 5828 5829 5830 5831 5833 5834 5836 5837 5839 5840 5841 5843 5844 5846 5848 5849 5850 5851 5852 5853 5853 5854 5855 5855 5856 5857 5858 5859 5860 5861 5862 5862 5863 5864 5865 5866 5866 5867 5868 5869 5869 5869 5870 5870 5871 5872 5872 5873 5874 5874 5875 5875 5876 5876 5876 5877 5877 5878 5878 5879 5879 5879 5880 5880 5880 5881 5881 5881 5882 5882 5882 5882
5779 5781 5782 5783 5783 5784 5786 5786 5787 5789 5792 5793 5794 5796 5798 5800 5802 5804 5805 5807 5809 5812 5812 5814 5816 5818 5820 5822 5823 5824 5825 5826 5827 5828 5829 5831 5832 5834 5835 5837 5838 5839 5841 5843 5844 5846 5847 5848 5849 5850 5850 5851 5852 5853 5854 5855 5856 5857 5858 5859 5859 5860 5861 5862 5862 5863 5864 5865 5866 5866 5867 5868 5868 5869 5869 5870 5870 5871 5872 5872 5873 5873 5874 5874 5875 5875 5876 5876 5877 5877 5878 5878 5878 5879 5879 5879 5880 5880 5880 5880 5881 5881 5881
5776 5779 5780 5782 5781 5782 5784 5784 5786 5787 5789 5792 5794 5795 5795 5797 5799 5801 5803 5804 5807 5808 5810 5812 5814 5816 5818 5820 5821 5822 5823 5824 5825 5826 5827 5829 5830 5832 5833 5834 5836 5838 5839 5840 5842 5844 5845 5846 5847 5848 5849 5849 5850 5851 5852 5853 5854 5855 5856 5857 5858 5859 5859 5860 5861 5862 5863 5864 5864 5865 5866 5866 5867 5867 5868 5869 5869 5869 5870 5871 5871 5872 5873 5873 5874 5874 5874 5875 5875 5876 5876 5877 5877 5878 5878 5878 5879 5879 5879 5879 5879 5880 5880
5774 5776 5778 5780 5781 5780 5781 5783 5784 5785 5786 5789 5792 5793 5794 5794 5796 5799 5801 5803 5804 5806 5808 5811 5813 5814 5816 5817 5819 5820 5821 5822 5823 5824 5826 5827 5828 5829 5831 5833 5834 5836 5837 5839 5840 5842 5843 5844 5845 5846 5846 5847 5848 5849 5850 5852 5853 5854 5854 5855 5856 5857 5858 5859 5859 5860 5861 5862 5863 5864 5864 5865 5865 5866 5867 5867 5868 5868 5869 5869 5870 5871 5871 5872 5872 5873 5873 5874 5874 5874 5875 5875 5876 5876 5877 5877 5877 5878 5878 5878 5878 5879 5879
5772 5774 5776 5779 5780 5780 5780 5781 5782 5783 5784 5787 5789 5790 5792 5792 5793 5796 5799 5800 5801 5804 5807 5808 5810 5812 5814 5815 5817 5818 5819 5821 5822 5823 5824 5825 5826 5828 5829 5831 5832 5834 5835 5836 5838 5839 5841 5842 5843 5844 5844 5845 5846 5847 5849 5850 5851 5852 5853 5854 5855 5855 5856 5857 5858 5859 5860 5860 5861 5862 5863 5863 5864 5864 5865 5866 5866 5867 5868 5868 5869 5869 5870 5870 5871 5872 5872 5872 5873 5873 5874 5874 5875 5875 5875 5876 5876 5876 5877 5877 5877 5877 5877
5769 5771 5773 5776 5778 5779 5778 5779 5780 5781 5783 5785 5787 5788 5789 5789 5790 5793 5796 5798 5799 5801 5804 5805 5808 5810 5811 5813 5814 5816 5817 5818 5819 5820 5822 5823 5824 5825 5827 5829 5830 5831 5833 5834 5836 5838 5839 5840 5841 5842 5842 5843 5844 5845 5847 5848 5849 5851 5851 5852 5853 5854 5855 5856 5857 5857 5858 5859 5859 5860 5861 5862 5862 5863 5864 5864 5865 5865 5866 5867 5868 5868 5869 5869 5870 5870 5871 5871 5872 5872 5873 5873 5874 5874 5874 5874 5875 5875 5875 5875 5875 5875 5876
5767 5769 5770 5772 5774 5776 5777 5777 5778 5779 5782 5782 5784 5785 5784 5786 5787 5790 5794 5795 5796 5798 5801 5803 5805 5807 5809 5811 5812 5814 5814 5816 5817 5818 5819 5820 5822 5823 5825 5826 5828 5829 5830 5832 5834 5835 5837 5838 5839 5840 5840 5841 5842 5844 5845 5846 5848 5849 5850 5851 5851 5852 5853 5854 5855 5856 5857 5857 5858 5859 5859 5860 5861 5862 5862 5863 5864 5864 5865 5865 5866 5867 5867 5868 5868 5869 5869 5870 5870 5871 5871 5872 5872 5872 5873 5873 5873 5874 5874 5874 5874 5874 5874
5764 5767 5768 5769 5771 5773 5776 5776 5777 5779 5780 5778 5779 5782 5782 5782 5784 5787 5791 5793 5794 5795 5798 5800 5803 5804 5806 5808 5810 5811 5812 5814 5814 5816 5817 5818 5819 5821 5822 5824 5825 5827 5829 5830 5832 5834 5835 5836 5837 5838 5839 5839 5840 5842 5843 5844 5846 5847 5848 5849 5850 5851 5852 5853 5854 5854 5855 5856 5856 5857 5858 5859 5859 5860 5861 5862 5862 5863 5864 5864 5864 5865 5866 5866 5867 5867 5868 5868 5869 5869 5870 5870 5870 5871 5871 5871 5872 5872 5872 5872 5872 5872 5872
5761 5764 5766 5766 5768 5770 5773 5775 5776 5776 5776 5777 5779 5781 5783 5780 5780 5784 5787 5789 5790 5792 5795 5798 5800 5802 5804 5806 5807 5809 5810 5811 5812 5814 5815 5816 5817 5819 5820 5822 5823 5825 5826 5828 5830 5831 5833 5834 5835 5836 5837 5837 5839 5840 5841 5843 5844 5845 5846 5847 5848 5849 5850 5851 5852 5853 5854 5854 5855 5856 5856 5857 5858 5859 5859 5860 5861 5861 5862 5863 5863 5864 5864 5865 5865 5866 5866 5867 5867 5868 5868 5869 5869 5869 5869 5870 5870 5870 5870 5870 5870 5871 5871
5759 5761 5763 5764 5766 5767 5769 5772 5773 5773 5774 5777 5779 5782 5786 5781 5779 5780 5781 5784 5787 5790 5792 5794 5796 5798 5800 5803 5804 5806 5807 5808 5809 5811 5812 5814 5815 5817 5818 5820 5821 5823 5824 5826 5828 5829 5831 5832 5833 5834 5835 5835 5837 5838 5839 5841 5842 5844 5845 5845 5846 5847 5848 5849 5850 5851 5852 5853 5853 5854 5855 5856 5857 5857 5858 5859 5859 5860 5861 5861 5862 5862 5863 5863 5864 5864 5865 5865 5866 5866 5867 5867 5867 5868 5868 5868 5868 5869 5869 5869 5869 5869 5869
5756 5758 5760 5762 5763 5764 5766 5769 5770 5772 5774 5777 5777 5779 5785 5786 5781 5777 5778 5781 5783 5786 5790 5792 5793 5794 5797 5799 5801 5803 5804 5806 5807 5809 5810 5812 5813 5814 5816 5818 5819 5821 5823 5824 5826 5828 5829 5830 5831 5832 5833 5834 5835 5836 5837 5839 5840 5842 5843 5844 5844 5845 5846 5847 5848 5849 5850 5851 5852 5852 5853 5854 5855 5856 5856 5857 5858 5859 5859 5860 5860 5861 5861 5862 5862 5863 5863 5864 5864 5864 5865 5865 5865 5866 5866 5866 5866 5867 5867 5867 5867 5867 5868
5753 5755 5758 5760 5762 5763 5764 5766 5769 5771 5773 5776 5776 5776 5782 5785 5782 5777 5776 5778 5780 5784 5787 5789 5789 5791 5794 5796 5799 5800 5802 5804 5805 5807 5809 5810 5811 5813 5814 5815 5817 5819 5821 5823 5824 5826 5827 5829 5829 5830 5831 5832 5833 5834 5835 5837 5838 5840 5841 5842 5843 5844 5844 5845 5846 5847 5848 5849 5850 5851 5852 5852 5853 5854 5855 5855 5856 5857 5857 5858 5859 5859 5859 5860 5860 5861 5861 5862 5862 5863 5863 5864 5864 5864 5864 5864 5865 5865 5865 5865 5865 5866 5866
5750 5753 5755 5758 5759 5761 5763 5764 5766 5768 5770 5775 5776 5777 5779 5778 5778 5777 5775 5774 5776 5779 5781 5784 5786 5788 5791 5794 5796 5799 5800 5802 5804 5805 5807 5808 5809 5811 5812 5814 5815 5817 5819 5821 5823 5824 5825 5827 5828 5829 5829 5830 5831 5832 5834 5835 5836 5838 5839 5840 5841 5842 5843 5844 5844 5845 5846 5847 5848 5849 5850 5851 5852 5852 5853 5854 5854 5855 5856 5856 5857 5857 5858 5858 5859 5859 5859 5860 5860 5861 5861 5862 5862 5862 5863 5863 5863 5863 5864 5864 5864 5864 5864
5747 5750 5753 5755 5757 5759 5761 5762 5764 5765 5767 5771 5774 5776 5775 5774 5772 5770 5770 5772 5773 5774 5777 5780 5783 5786 5789 5791 5794 5796 5798 5800 5802 5803 5805 5806 5808 5809 5810 5812 5813 5815 5817 5819 5820 5822 5823 5824 5826 5827 5828 5829 5829 5831 5832 5833 5834 5836 5837 5838 5839 5840 5841 5842 5843 5844 5844 5845 5846 5847 5848 5849 5850 5850 5851 5852 5853 5853 5854 5854 5855 5855 5856 5856 5857 5857 5858 5858 5859 5859 5859 5859 5860 5860 5861 5861 5861 5862 5862 5862 5862 5863 5863
5744 5747 5749 5752 5754 5757 5759 5760 5761 5763 5764 5766 5769 5773 5775 5774 5772 5769 5765 5766 5768 5771 5775 5778 5781 5784 5786 5789 5791 5794 5796 5798 5799 5801 5803 5804 5805 5807 5808 5809 5811 5813 5815 5817 5818 5820 5821 5823 5824 5825 5826 5827 5828 5829 5830 5831 5832 5834 5835 5836 5837 5838 5839 5840 5841 5842 5843 5844 5845 5846 5847 5847 5848 5849 5850 5850 5851 5851 5852 5853 5853 5854 5854 5855 5855 5855 5856 5858 5858 5858 5858 5858 5859 5859 5859 5859 5859 5860 5860 5860 5861 5861 5861
5742 5744 5747 5749 5751 5754 5755 5757 5759 5759 5761 5762 5764 5768 5773 5775 5773 5768 5765 5764 5766 5769 5772 5775 5778 5781 5784 5786 5789 5791 5793 5795 5797 5799 5800 5802 5803 5804 5806 5807 5809 5810 5812 5814 5816 5818 5819 5820 5822 5823 5824 5825 5826 5827 5828 5829 5830 5832 5833 5834 5835 5836 5837 5838 5839 5840 5841 5842 5843 5844 5845 5845 5846 5847 5848 5849 5849 5849 5850 5851 5851 5852 5852 5853 5853 5854 5854 5855 5856 5857 5857 5858 5857 5857 5857 5857 5858 5858 5859 5859 5859 5859 5859
5739 5741 5744 5746 5748 5750 5752 5754 5755 5756 5758 5759 5760 5762 5764 5768 5768 5766 5763 5763 5764 5767 5769 5772 5775 5779 5781 5784 5786 5789 5791 5793 5795 5796 5798 5799 5801 5802 5803 5805 5806 5808 5810 5812 5814 5815 5817 5818 5820 5821 5822 5824 5824 5826 5827 5828 5829 5830 5831 5832 5833 5834 5835 5836 5837 5838 5839 5840 5841 5842 5843 5844 5844 5845 5846 5846 5847 5848 5848 5849 5849 5850 5850 5851 5851 5852 5852 5853 5853 5854 5855 5856 5856 5856 5855 5855 5856 5856 5857 5857 5857 5857 5858
5736 5739 5741 5743 5744 5746 5749 5750 5751 5753 5754 5755 5756 5759 5760 5760 5761 5761 5760 5761 5763 5765 5767 5769 5772 5775 5778 5781 5784 5786 5789 5791 5793 5794 5795 5797 5798 5799 5801 5802 5804 5806 5808 5810 5812 5813 5815 5816 5818 5819 5820 5821 5823 5824 5825 5826 5827 5828 5829 5830 5831 5832 5833 5834 5835 5836 5837 5838 5839 5840 5841 5842 5843 5843 5844 5844 5845 5846 5846 5847 5848 5848 5849 5849 5849 5850 5850 5851 5851 5852 5852 5854 5854 5854 5854 5854 5854 5854 5854 5855 5855 5855 5855
5733 5736 5738 5740 5741 5743 5745 5746 5748 5749 5751 5752 5754 5756 5759 5759 5759 5759 5759 5759 5761 5764 5765 5767 5769 5772 5775 5778 5781 5784 5786 5789 5790 5792 5793 5794 5795 5797 5798 5800 5802 5804 5806 5808 5809 5811 5812 5814 5815 5816 5818 5819 5821 5822 5823 5824 5825 5826 5827 5828 5829 5830 5831 5832 5833 5834 5835 5836 5837 5838 5839 5840 5840 5841 5842 5843 5843 5844 5844 5845 5845 5846 5846 5847 5847 5848 5848 5849 5849 5849 5850 5851 5851 5851 5852 5852 5852 5852 5853 5853 5853 5853 5853
5730 5732 5735 5737 5739 5741 5743 5744 5744 5746 5748 5750 5753 5755 5757 5757 5758 5758 5758 5759 5760 5762 5763 5765 5768 5770 5773 5776 5779 5782 5784 5787 5789 5790 5791 5792 5793 5794 5796 5797 5799 5801 5803 5805 5807 5809 5810 5811 5813 5814 5815 5817 5819 5820 5821 5822 5823 5824 5824 5825 5827 5828 5829 5830 5831 5832 5832 5834 5834 5836 5837 5838 5838 5839 5840 5840 5841 5842 5842 5843 5843 5844 5844 5845 5845 5846 5846 5846 5847 5848 5848 5849 5849 5849 5850 5850 5850 5850 5851 5851 5851 5851 5851
5727 5729 5732 5734 5736 5739 5740 5741 5742 5743 5745 5747 5751 5754 5756 5756 5756 5756 5757 5758 5759 5760 5762 5764 5766 5768 5771 5774 5776 5779 5782 5785 5787 5788 5788 5789 5790 5791 5793 5794 5796 5798 5800 5802 5804 5806 5807 5809 5810 5811 5813 5814 5816 5817 5819 5819 5820 5821 5822 5823 5824 5826 5827 5828 5829 5829 5830 5831 5832 5833 5834 5835 5836 5837 5838 5838 5839 5839 5840 5840 5841 5841 5842 5843 5843 5844 5844 5844 5845 5845 5846 5846 5847 5847 5848 5849 5849 5849 5849 5849 5849 5849 5849
5724 5726 5729 5731 5734 5736 5738 5739 5739 5740 5742 5745 5749 5751 5754 5754 5755 5755 5756 5757 5759 5760 5762 5763 5765 5767 5769 5772 5774 5777 5780 5782 5784 5785 5786 5786 5787 5788 5789 5791 5793 5795 5797 5799 5801 5803 5804 5806 5807 5809 5810 5812 5814 5815 5816 5817 5818 5819 5820 5821 5822 5823 5824 5825 5826 5827 5828 5829 5830 5831 5832 5833 5834 5835 5835 5836 5837 5837 5838 5838 5839 5839 5840 5840 5841 5842 5842 5843 5843 5843 5844 5844 5844 5845 5845 5846 5847 5847 5846 5846 5847 5847 5847
5721 5724 5726 5728 5731 5733 5735 5736 5737 5738 5740 5743 5746 5749 5751 5752 5754 5755 5755 5756 5758 5759 5760 5762 5764 5765 5768 5769 5772 5774 5777 5779 5781 5783 5784 5784 5784 5785 5786 5787 5789 5791 5794 5796 5798 5799 5801 5803 5805 5806 5808 5809 5811 5813 5814 5815 5816 5817 5818 5818 5819 5821 5822 5823 5824 5825 5826 5827 5828 5829 5829 5830 5831 5832 5833 5834 5834 5835 5835 5836 5836 5837 5838 5838 5839 5839 5840 5841 5841 5841 5841 5842 5842 5842 5843 5844 5844 5845 5844 5844 5844 5844 5844
5719 5721 5723 5726 5728 5730 5732 5734 5735 5736 5739 5740 5743 5747 5749 5751 5753 5754 5754 5755 5756 5758 5759 5761 5762 5764 5766 5768 5769 5772 5774 5776 5779 5780 5781 5782 5782 5783 5783 5784 5785 5788 5790 5792 5794 5797 5799 5801 5802 5804 5806 5807 5809 5810 5811 5813 5814 5814 5815 5816 5817 5818 5819 5821 5822 5823 5824 5824 5825 5826 5827 5828 5829 5830 5831 5831 5832 5833 5833 5834 5834 5834 5835 5836 5836 5837 5838 5838 5839 5840 5839 5839 5840 5840 5840 5841 5843 5843 5842 5842 5842 5842 5842
5716 5718 5721 5724 5726 5729 5730 5732 5733 5734 5736 5738 5739 5742 5746 5750 5751 5752 5754 5754 5755 5756 5758 5759 5760 5762 5764 5765 5767 5769 5772 5774 5776 5778 5779 5780 5780 5780 5780 5781 5782 5785 5788 5790 5792 5794 5796 5798 5800 5802 5803 5805 5806 5808 5809 5810 5811 5812 5813 5814 5815 5816 5817 5819 5820 5821 5822 5822 5823 5824 5825 5826 5827 5827 5828 5829 5829 5830 5831 5831 5832 5832 5833 5833 5834 5835 5835 5836 5837 5838 5838 5838 5838 5838 5838 5839 5840 5840 5839 5839 5839 5839 5840
5713 5715 5718 5721 5724 5727 5729 5730 5731 5732 5734 5736 5737 5739 5743 5747 5749 5750 5752 5753 5754 5755 5756 5757 5759 5760 5761 5763 5765 5767 5769 5772 5774 5775 5777 5777 5778 5778 5778 5778 5779 5782 5785 5787 5789 5791 5794 5795 5798 5799 5801 5802 5804 5805 5807 5808 5809 5810 5811 5812 5813 5814 5814 5816 5817 5818 5819 5820 5821 5822 5823 5824 5824 5825 5826 5826 5827 5828 5828 5829 5829 5830 5830 5831 5832 5832 5833 5834 5834 5835 5835 5835 5835 5835 5836 5837 5837 5837 5837 5837 5837 5837 5837
5709 5712 5715 5719 5722 5725 5726 5728 5729 5730 5732 5734 5736 5739 5741 5744 5747 5748 5749 5751 5753 5754 5755 5756 5757 5758 5759 5761 5762 5765 5767 5769 5771 5773 5774 5775 5776 5777 5777 5777 5778 5779 5782 5784 5786 5789 5791 5793 5795 5797 5799 5800 5801 5803 5804 5806 5807 5808 5809 5810 5810 5811 5812 5813 5814 5815 5817 5818 5819 5819 5820 5821 5822 5823 5823 5824 5824 5825 5826 5826 5827 5827 5828 5829 5829 5830 5831 5831 5832 5832 5833 5833 5833 5833 5834 5834 5834 5834 5834 5834 5834 5834 5834
5706 5709 5712 5715 5719 5722 5724 5725 5727 5728 5729 5731 5734 5737 5739 5740 5743 5746 5746 5748 5751 5752 5753 5754 5755 5757 5758 5759 5760 5762 5764 5766 5768 5769 5771 5773 5775 5776 5775 5775 5775 5777 5778 5781 5783 5785 5788 5790 5792 5794 5796 5798 5799 5801 5802 5803 5805 5806 5807 5808 5808 5809 5809 5810 5811 5813 5814 5815 5816 5817 5818 5819 5819 5820 5821 5821 5822 5823 5823 5824 5824 5825 5825 5826 5827 5827 5828 5829 5829 5829 5829 5830 5831 5831 5831 5831 5831 5832 5832 5832 5832 5832 5832
5703 5706 5709 5712 5716 5719 5721 5723 5724 5725 5727 5729 5731 5734 5736 5737 5738 5740 5742 5745 5748 5750 5751 5752 5753 5754 5755 5756 5758 5759 5761 5763 5765 5767 5769 5771 5772 5773 5772 5771 5771 5772 5774 5778 5780 5782 5785 5787 5790 5792 5794 5795 5797 5798 5799 5801 5802 5803 5804 5805 5806 5806 5807 5808 5809 5810 5811 5812 5814 5815 5816 5816 5817 5818 5818 5819 5819 5820 5820 5821 5822 5823 5823 5824 5824 5824 5825 5826 5826 5826 5827 5827 5828 5828 5829 5829 5829 5829 5829 5829 5829 5829 5829
5701 5703 5706 5709 5712 5715 5718 5720 5722 5723 5724 5726 5728 5730 5732 5734 5735 5736 5739 5742 5746 5748 5748 5749 5749 5750 5751 5753 5755 5757 5759 5760 5762 5764 5766 5768 5769 5768 5768 5768 5769 5770 5773 5774 5776 5779 5782 5785 5788 5790 5792 5793 5794 5795 5797 5798 5799 5800 5802 5802 5803 5804 5804 5805 5806 5807 5808 5809 5810 5812 5813 5814 5814 5815 5816 5816 5817 5817 5818 5819 5819 5820 5821 5821 5822 5822 5823 5823 5823 5824 5824 5824 5825 5825 5826 5826 5826 5826 5826 5827 5827 5826 5826
5698 5700 5703 5706 5709 5713 5715 5717 5719 5721 5722 5724 5726 5728 5730 5732 5733 5734 5738 5740 5742 5744 5745 5747 5746 5746 5747 5749 5752 5754 5756 5758 5759 5761 5763 5764 5765 5765 5765 5766 5768 5769 5770 5772 5773 5776 5780 5785 5787 5787 5788 5790 5791 5793 5794 5795 5797 5798 5799 5799 5800 5801 5802 5802 5803 5804 5805 5806 5807 5809 5810 5811 5812 5813 5813 5814 5814 5814 5815 5816 5816 5817 5818 5819 5819 5819 5820 5820 5820 5821 5821 5821 5822 5822 5823 5823 5823 5823 5823 5823 5823 5823 5823
5695 5698 5700 5703 5706 5709 5713 5716 5718 5719 5720 5721 5723 5725 5727 5729 5732 5735 5738 5738 5739 5739 5741 5742 5743 5743 5744 5746 5749 5751 5753 5754 5756 5757 5759 5760 5762 5763 5763 5764 5765 5766 5768 5769 5771 5775 5780 5783 5783 5783 5784 5786 5788 5789 5790 5792 5793 5794 5795 5796 5797 5798 5799 5800 5801 5801 5802 5803 5804 5805 5806 5808 5809 5810 5811 5811 5812 5812 5812 5813 5813 5814 5815 5815 5816 5817 5817 5818 5818 5818 5818 5819 5819 5819 5819 5820 5820 5820 5820 5820 5820 5820 5820
5692 5695 5698 5700 5703 5707 5710 5714 5716 5718 5719 5719 5721 5723 5725 5729 5732 5734 5734 5734 5734 5735 5736 5738 5740 5741 5742 5744 5746 5748 5749 5750 5752 5754 5755 5757 5758 5759 5760 5761 5761 5763 5765 5767 5771 5775 5777 5778 5779 5780 5780 5783 5784 5785 5787 5788 5789 5790 5792 5793 5794 5795 5796 5797 5798 5799 5799 5800 5801 5802 5803 5804 5806 5807 5808 5809 5809 5809 5810 5810 5811 5811 5812 5812 5813 5814 5814 5815 5815 5815 5815 5816 5816 5816 5816 5816 5817 5817 5817 5817 5816 5816 5816
5689 5692 5694 5697 5700 5704 5707 5710 5713 5715 5717 5718 5719 5721 5724 5726 5728 5728 5727 5727 5728 5729 5732 5734 5737 5739 5740 5742 5743 5744 5745 5746 5748 5750 5752 5753 5754 5755 5756 5758 5760 5762 5764 5766 5769 5770 5771 5773 5774 5775 5777 5779 5780 5781 5783 5784 5785 5787 5789 5790 5791 5792 5793 5794 5796 5797 5797 5798 5798 5799 5800 5801 5802 5804 5804 5806 5806 5807 5807 5808 5808 5808 5809 5809 5810 5810 5811 5812 5812 5812 5813 5813 5813 5813 5813 5813 5813 5813 5813 5813 5813 5813 5813
5686 5689 5691 5694 5697 5700 5704 5707 5709 5711 5714 5715 5717 5719 5721 5721 5720 5720 5721 5722 5724 5727 5729 5732 5733 5735 5738 5739 5740 5741 5742 5743 5744 5746 5747 5749 5749 5750 5752 5754 5757 5759 5760 5762 5764 5764 5765 5768 5769 5771 5774 5774 5775 5776 5779 5780 5781 5784 5785 5787 5788 5789 5790 5792 5793 5794 5795 5795 5796 5796 5797 5798 5799 5800 5801 5802 5803 5804 5805 5805 5806 5806 5806 5806 5807 5807 5808 5808 5809 5809 5809 5810 5810 5810 5810 5809 5809 5810 5810 5809 5809 5809 5809
5683 5685 5688 5691 5694 5697 5700 5703 5706 5708 5710 5712 5715 5716 5717 5716 5716 5717 5718 5719 5721 5724 5726 5728 5730 5732 5734 5735 5737 5737 5738 5740 5741 5742 5742 5743 5744 5746 5749 5751 5754 5755 5756 5758 5760 5761 5762 5764 5766 5767 5769 5769 5771 5773 5775 5776 5778 5780 5781 5783 5784 5786 5787 5789 5790 5791 5792 5793 5793 5794 5794 5794 5795 5796 5797 5799 5799 5800 5801 5802 5803 5803 5804 5804 5804 5804 5804 5805 5805 5806 5806 5806 5807 5807 5806 5806 5806 5806 5806 5806 5806 5805 5805
5679 5682 5685 5688 5690 5694 5696 5699 5703 5705 5707 5709 5712 5713 5713 5713 5714 5714 5716 5717 5719 5721 5722 5724 5727 5730 5731 5732 5733 5734 5735 5737 5737 5738 5738 5739 5740 5743 5746 5749 5751 5752 5753 5754 5756 5758 5759 5761 5762 5764 5765 5766 5768 5769 5771 5772 5774 5776 5777 5779 5780 5782 5784 5785 5787 5788 5789 5790 5790 5791 5791 5792 5792 5793 5794 5795 5796 5797 5798 5799 5799 5800 5800 5801 5801 5801 5801 5801 5802 5802 5803 5803 5803 5803 5803 5803 5803 5803 5803 5803 5802 5802 5802